QPF
0.00 0.00 0.00 0.00 0.00 0.00 0.00 0.00 0.00 0.00 0.00 0.00 0.00 0.00 0.00 0.00 0.00 0.00 0.00 0.00 0.00 0.00 0.00 0.00 0.00 0.00 0.00 0.00 0.00 0.04 0.13 0.05 0.00 0.00 0.00 0.00 0.00 0.00 0.01 0.00 0.00 0.00 0.00 0.00 0.00
0.00 0.00 0.00 0.00 0.00 0.00 0.00 0.00 0.00 0.00 0.00 0.00 0.00 0.00 0.00 0.00 0.00 0.00 0.00 0.00 0.00 0.00 0.00 0.00 0.00 0.00 0.00 0.00 0.00 0.04 0.13 0.11 0.04 0.01 0.00 0.00 0.01 0.00 0.00 0.00 0.00 0.00 0.00 0.00 0.00
0.00 0.00 0.00 0.00 0.00 0.00 0.00 0.00 0.00 0.00 0.00 0.00 0.00 0.00 0.00 0.00 0.00 0.00 0.00 0.00 0.00 0.00 0.00 0.00 0.00 0.00 0.00 0.00 0.00 0.02 0.08 0.05 0.04 0.02 0.00 0.00 0.01 0.00 0.00 0.00 0.00 0.00 0.00 0.00 0.00
0.00 0.00 0.00 0.00 0.00 0.00 0.00 0.00 0.00 0.00 0.00 0.00 0.00 0.00 0.00 0.00 0.00 0.00 0.00 0.00 0.00 0.00 0.00 0.00 0.00 0.00 0.00 0.00 0.01 0.02 0.01 0.01 0.01 0.01 0.01 0.03 0.01 0.00 0.00 0.00 0.00 0.00 0.00 0.00 0.00
0.00 0.00 0.00 0.00 0.00 0.00 0.00 0.00 0.00 0.00 0.00 0.00 0.00 0.00 0.00 0.00 0.00 0.00 0.00 0.00 0.00 0.00 0.00 0.00 0.00 0.00 0.00 0.00 0.01 0.01 0.00 0.01 0.00 0.01 0.06 0.01 0.00 0.00 0.00 0.00 0.00 0.00 0.00 0.00 0.00
0.00 0.00 0.00 0.00 0.00 0.00 0.00 0.00 0.00 0.00 0.00 0.00 0.00 0.00 0.00 0.00 0.00 0.00 0.00 0.00 0.00 0.00 0.00 0.00 0.00 0.00 0.00 0.02 0.07 0.03 0.00 0.00 0.01 0.00 0.02 0.01 0.01 0.00 0.00 0.00 0.00 0.00 0.00 0.00 0.00
0.00 0.00 0.00 0.00 0.00 0.00 0.00 0.00 0.00 0.00 0.00 0.00 0.00 0.00 0.00 0.00 0.00 0.00 0.00 0.00 0.00 0.00 0.00 0.00 0.00 0.00 0.00 0.02 0.02 0.04 0.01 0.02 0.02 0.00 0.00 0.00 0.00 0.00 0.00 0.00 0.00 0.00 0.00 0.00 0.00
0.00 0.00 0.00 0.00 0.00 0.00 0.00 0.00 0.00 0.00 0.00 0.00 0.00 0.00 0.00 0.00 0.00 0.00 0.00 0.00 0.00 0.00 0.00 0.00 0.00 0.00 0.00 0.01 0.01 0.00 0.03 0.14 0.08 0.00 0.01 0.02 0.02 0.00 0.00 0.00 0.00 0.00 0.00 0.00 0.00
0.00 0.00 0.00 0.00 0.00 0.00 0.00 0.00 0.00 0.00 0.00 0.00 0.00 0.00 0.00 0.00 0.00 0.00 0.00 0.00 0.00 0.00 0.00 0.00 0.00 0.00 0.00 0.00 0.00 0.00 0.03 0.03 0.09 0.01 0.00 0.05 0.03 0.00 0.00 0.00 0.00 0.00 0.00 0.00 0.00
0.00 0.00 0.00 0.00 0.00 0.00 0.00 0.00 0.00 0.00 0.00 0.00 0.00 0.00 0.00 0.00 0.00 0.00 0.00 0.00 0.00 0.00 0.00 0.00 0.00 0.00 0.00 0.00 0.00 0.02 0.01 0.00 0.02 0.01 0.02 0.03 0.01 0.00 0.00 0.00 0.00 0.00 0.00 0.00 0.00
0.00 0.00 0.00 0.00 0.00 0.00 0.00 0.00 0.00 0.00 0.00 0.00 0.00 0.00 0.00 0.00 0.00 0.00 0.00 0.00 0.00 0.00 0.00 0.00 0.00 0.00 0.00 0.00 0.01 0.01 0.00 0.01 0.08 0.03 0.02 0.10 0.03 0.00 0.00 0.00 0.01 0.00 0.00 0.00 0.00
0.00 0.00 0.00 0.00 0.00 0.00 0.00 0.00 0.00 0.00 0.00 0.00 0.00 0.00 0.00 0.00 0.00 0.00 0.00 0.00 0.00 0.00 0.00 0.00 0.00 0.00 0.00 0.00 0.00 0.00 0.00 0.00 0.03 0.11 0.06 0.10 0.12 0.00 0.01 0.00 0.01 0.01 0.03 0.02 0.01
0.00 0.00 0.00 0.00 0.00 0.00 0.00 0.00 0.00 0.00 0.00 0.00 0.00 0.00 0.00 0.00 0.00 0.00 0.00 0.00 0.00 0.00 0.00 0.00 0.00 0.00 0.00 0.00 0.00 0.00 0.00 0.01 0.05 0.06 0.08 0.05 0.09 0.00 0.01 0.00 0.02 0.01 0.01 0.05 0.04
0.00 0.00 0.00 0.00 0.00 0.00 0.00 0.00 0.00 0.00 0.00 0.00 0.00 0.00 0.00 0.00 0.00 0.00 0.00 0.00 0.00 0.00 0.00 0.00 0.00 0.00 0.00 0.00 0.00 0.00 0.00 0.00 0.04 0.09 0.08 0.03 0.12 0.10 0.02 0.01 0.00 0.00 0.00 0.00 0.01
0.00 0.00 0.00 0.00 0.00 0.00 0.00 0.00 0.00 0.00 0.00 0.00 0.00 0.00 0.00 0.00 0.00 0.00 0.00 0.00 0.00 0.00 0.00 0.00 0.00 0.00 0.00 0.00 0.00 0.00 0.00 0.00 0.01 0.06 0.04 0.05 0.09 0.09 0.08 0.01 0.00 0.00 0.00 0.00 0.00
0.00 0.00 0.00 0.00 0.00 0.00 0.00 0.00 0.00 0.00 0.00 0.00 0.00 0.00 0.00 0.00 0.00 0.00 0.00 0.00 0.00 0.00 0.00 0.00 0.00 0.00 0.00 0.00 0.00 0.00 0.00 0.00 0.00 0.01 0.03 0.01 0.02 0.02 0.02 0.00 0.00 0.00 0.00 0.00 0.00
0.00 0.00 0.00 0.00 0.00 0.00 0.00 0.00 0.00 0.00 0.00 0.00 0.00 0.00 0.00 0.00 0.00 0.00 0.00 0.00 0.00 0.00 0.00 0.00 0.00 0.00 0.00 0.00 0.00 0.00 0.00 0.00 0.00 0.00 0.00 0.00 0.00 0.01 0.01 0.00 0.00 0.00 0.00 0.00 0.00
0.00 0.00 0.00 0.00 0.00 0.00 0.00 0.00 0.01 0.00 0.00 0.00 0.00 0.00 0.00 0.00 0.00 0.00 0.00 0.00 0.00 0.00 0.00 0.00 0.00 0.00 0.00 0.00 0.00 0.00 0.00 0.00 0.00 0.00 0.00 0.00 0.01 0.00 0.00 0.00 0.00 0.00 0.00 0.00 0.00
0.00 0.00 0.00 0.00 0.00 0.00 0.00 0.00 0.00 0.00 0.00 0.00 0.00 0.00 0.00 0.00 0.00 0.00 0.00 0.00 0.00 0.00 0.00 0.00 0.00 0.00 0.00 0.00 0.00 0.00 0.00 0.00 0.00 0.00 0.00 0.00 0.04 0.01 0.00 0.00 0.00 0.00 0.00 0.00 0.00
0.00 0.00 0.00 0.00 0.00 0.00 0.00 0.00 0.00 0.00 0.00 0.00 0.00 0.00 0.00 0.00 0.00 0.00 0.00 0.00 0.00 0.00 0.00 0.00 0.00 0.00 0.00 0.00 0.00 0.00 0.00 0.00 0.00 0.00 0.00 0.00 0.00 0.01 0.01 0.00 0.01 0.00 0.00 0.00 0.00
0.00 0.00 0.00 0.00 0.00 0.00 0.00 0.00 0.00 0.00 0.00 0.00 0.00 0.00 0.00 0.00 0.00 0.00 0.00 0.00 0.00 0.00 0.00 0.00 0.00 0.00 0.00 0.00 0.00 0.00 0.00 0.00 0.00 0.00 0.00 0.00 0.01 0.00 0.00 0.01 0.06 0.02 0.00 0.00 0.00
0.00 0.00 0.00 0.00 0.00 0.00 0.00 0.00 0.00 0.00 0.00 0.00 0.00 0.00 0.00 0.00 0.00 0.00 0.00 0.00 0.00 0.00 0.00 0.00 0.00 0.00 0.00 0.00 0.00 0.00 0.00 0.00 0.00 0.00 0.00 0.00 0.00 0.00 0.00 0.02 0.04 0.04 0.00 0.00 0.00
0.00 0.00 0.00 0.00 0.00 0.00 0.00 0.00 0.00 0.00 0.00 0.00 0.00 0.00 0.00 0.00 0.00 0.00 0.00 0.00 0.00 0.00 0.00 0.00 0.00 0.00 0.00 0.00 0.00 0.00 0.00 0.00 0.00 0.00 0.00 0.00 0.00 0.00 0.00 0.00 0.01 0.00 0.00 0.00 0.00
0.00 0.00 0.00 0.00 0.00 0.00 0.00 0.00 0.00 0.00 0.00 0.00 0.00 0.00 0.00 0.00 0.00 0.00 0.00 0.00 0.00 0.00 0.00 0.00 0.00 0.00 0.00 0.00 0.00 0.00 0.00 0.00 0.00 0.00 0.00 0.00 0.00 0.01 0.00 0.00 0.00 0.00 0.00 0.00 0.00
0.00 0.00 0.00 0.00 0.00 0.00 0.00 0.00 0.00 0.00 0.00 0.00 0.00 0.00 0.00 0.00 0.00 0.00 0.00 0.00 0.00 0.00 0.00 0.00 0.00 0.00 0.00 0.00 0.00 0.00 0.00 0.00 0.00 0.00 0.00 0.00 0.01 0.01 0.00 0.01 0.05 0.02 0.00 0.00 0.00
0.00 0.00 0.00 0.00 0.00 0.00 0.00 0.00 0.00 0.00 0.00 0.00 0.00 0.00 0.00 0.00 0.00 0.00 0.00 0.00 0.00 0.00 0.00 0.00 0.00 0.00 0.00 0.00 0.00 0.00 0.00 0.00 0.00 0.00 0.00 0.00 0.00 0.00 0.01 0.05 0.09 0.13 0.08 0.03 0.02
0.00 0.00 0.00 0.00 0.00 0.00 0.00 0.00 0.00 0.00 0.00 0.00 0.00 0.00 0.00 0.00 0.00 0.00 0.00 0.00 0.00 0.00 0.00 0.00 0.00 0.00 0.00 0.00 0.00 0.00 0.00 0.00 0.00 0.00 0.00 0.00 0.00 0.00 0.02 0.04 0.03 0.02 0.05 0.02 0.04
MSLP
1016.74 1016.52 1016.20 1016.00 1015.83 1015.67 1015.56 1015.40 1015.24 1015.09 1014.86 1014.70 1014.52 1014.32 1014.06 1013.76 1013.11 1012.34 1010.12 1008.00 1007.40 1008.14 1008.42 1007.54 1007.30 1006.56 1006.27 1006.60 1006.62 1008.00 1008.92 1007.39 1006.10 1005.66 1004.96 1004.53 1005.78 1006.78 1006.20 1005.83 1006.41 1007.13 1008.05 1009.27 1009.85
1016.66 1016.42 1016.19 1015.97 1015.79 1015.60 1015.38 1015.26 1015.10 1014.97 1014.81 1014.61 1014.43 1014.20 1013.98 1013.75 1012.39 1010.02 1007.63 1007.65 1007.95 1008.22 1008.05 1006.98 1006.17 1005.92 1005.86 1005.61 1005.61 1006.59 1008.86 1008.06 1008.13 1006.39 1005.71 1005.65 1005.74 1006.15 1005.90 1005.95 1006.92 1007.70 1008.54 1009.24 1009.89
1016.64 1016.40 1016.09 1015.86 1015.67 1015.48 1015.30 1015.13 1014.94 1014.84 1014.69 1014.49 1014.28 1014.08 1013.89 1013.60 1011.13 1006.54 1005.88 1007.24 1007.76 1008.17 1007.48 1006.18 1005.28 1004.94 1005.12 1004.86 1004.75 1005.40 1006.44 1008.82 1007.82 1007.22 1005.80 1006.49 1006.32 1005.98 1006.15 1006.24 1007.16 1008.36 1009.25 1009.33 1010.14
1016.62 1016.32 1016.08 1015.73 1015.53 1015.33 1015.16 1014.97 1014.84 1014.74 1014.60 1014.43 1014.24 1014.00 1013.73 1012.90 1008.74 1006.88 1007.25 1007.44 1007.66 1007.82 1007.57 1005.87 1004.86 1004.19 1003.68 1003.50 1003.97 1004.86 1005.97 1007.65 1007.04 1006.67 1006.58 1007.39 1007.13 1006.24 1006.15 1006.22 1007.44 1008.90 1009.56 1009.42 1010.13
1016.56 1016.29 1015.97 1015.69 1015.42 1015.25 1015.05 1014.85 1014.68 1014.58 1014.48 1014.34 1014.19 1013.98 1013.22 1010.68 1006.93 1006.65 1007.18 1007.64 1007.56 1007.54 1006.85 1005.48 1004.57 1003.74 1003.14 1002.90 1003.56 1004.42 1005.82 1006.26 1006.42 1007.42 1007.77 1007.88 1008.15 1007.68 1007.36 1006.88 1007.97 1009.06 1009.42 1009.64 1009.90
1016.51 1016.18 1015.87 1015.61 1015.36 1015.12 1014.95 1014.75 1014.56 1014.47 1014.35 1014.24 1014.10 1014.00 1012.48 1008.44 1005.26 1006.17 1006.53 1007.10 1006.70 1006.64 1006.11 1005.00 1004.13 1003.42 1002.89 1003.05 1003.99 1004.04 1004.88 1006.00 1006.98 1007.95 1008.11 1008.90 1009.64 1008.85 1008.17 1007.76 1008.43 1009.14 1009.40 1009.60 1009.79
1016.38 1016.10 1015.73 1015.42 1015.24 1015.04 1014.86 1014.65 1014.46 1014.28 1014.18 1014.14 1014.06 1013.45 1010.51 1006.78 1005.50 1005.19 1005.98 1006.38 1005.87 1005.91 1005.08 1004.58 1003.89 1003.26 1002.78 1003.12 1003.54 1003.77 1004.33 1005.87 1006.66 1008.00 1009.32 1009.54 1010.41 1010.22 1009.68 1008.34 1008.95 1009.22 1009.30 1009.44 1009.81
1016.27 1016.00 1015.66 1015.35 1015.08 1014.90 1014.72 1014.52 1014.31 1014.16 1013.97 1013.92 1013.93 1012.74 1008.38 1005.03 1005.47 1005.02 1005.35 1005.33 1005.41 1005.25 1004.66 1004.22 1004.04 1003.69 1003.24 1003.18 1003.25 1003.37 1004.43 1005.54 1006.81 1007.75 1009.10 1009.26 1011.15 1010.87 1010.32 1009.78 1009.36 1009.24 1009.16 1009.56 1010.00
1016.23 1015.96 1015.66 1015.32 1015.02 1014.76 1014.57 1014.34 1014.03 1013.85 1013.69 1013.62 1013.22 1011.30 1006.82 1005.96 1005.41 1004.68 1004.86 1004.51 1004.71 1004.75 1004.42 1003.93 1004.02 1004.08 1003.38 1003.06 1002.74 1002.96 1004.01 1005.00 1006.99 1007.52 1008.90 1009.51 1011.00 1011.55 1011.10 1010.90 1009.79 1009.38 1009.48 1009.74 1010.22
1016.20 1015.90 1015.54 1015.20 1014.92 1014.65 1014.30 1014.06 1013.49 1013.54 1013.15 1012.20 1011.04 1009.41 1005.84 1004.54 1004.28 1004.15 1004.48 1004.22 1004.42 1004.44 1004.38 1004.60 1004.47 1004.00 1003.08 1002.13 1001.57 1002.48 1003.13 1005.21 1006.20 1007.64 1008.85 1009.63 1010.48 1011.35 1011.37 1011.48 1010.80 1009.79 1010.11 1010.19 1010.54
1016.09 1015.74 1015.41 1015.16 1014.85 1014.60 1013.94 1013.06 1012.94 1011.74 1010.29 1008.05 1006.72 1005.20 1003.45 1003.50 1004.01 1004.30 1004.35 1004.36 1004.52 1004.37 1004.07 1004.08 1003.80 1002.79 1002.01 1001.34 1001.22 1002.12 1002.98 1005.16 1007.09 1008.92 1009.26 1009.70 1010.75 1011.26 1012.07 1011.94 1011.60 1010.87 1011.05 1011.12 1010.76
1015.99 1015.64 1015.36 1015.09 1014.82 1014.62 1014.28 1010.93 1007.66 1007.05 1006.50 1006.14 1005.18 1004.44 1003.38 1003.64 1004.00 1003.84 1004.24 1004.24 1004.15 1003.74 1003.65 1003.08 1002.50 1001.91 1001.47 1000.95 1001.48 1002.21 1002.78 1004.68 1008.74 1006.87 1009.17 1009.94 1010.73 1011.10 1011.59 1011.73 1011.97 1012.21 1012.16 1012.94 1011.82
1015.86 1015.61 1015.29 1014.94 1014.68 1014.25 1011.46 1008.76 1007.22 1006.48 1005.49 1004.18 1004.10 1004.00 1003.56 1003.73 1003.24 1003.46 1003.96 1003.56 1003.51 1003.21 1002.70 1001.78 1001.54 1001.45 1000.91 1000.99 1001.76 1001.76 1002.24 1004.95 1008.40 1009.92 1009.81 1009.81 1011.33 1011.11 1011.58 1012.20 1012.68 1012.94 1013.43 1014.17 1013.60
1015.82 1015.50 1015.20 1014.85 1014.70 1010.55 1008.69 1007.09 1006.76 1006.39 1005.35 1003.57 1003.40 1002.82 1003.32 1003.26 1002.68 1002.98 1003.53 1003.07 1002.71 1002.49 1002.00 1001.33 1000.55 1000.51 1000.49 1000.57 1001.15 1001.12 1002.04 1005.31 1007.48 1010.14 1005.65 1008.81 1010.06 1011.44 1011.44 1011.89 1012.57 1013.36 1014.18 1014.38 1014.32
1015.73 1015.40 1015.14 1015.16 1013.25 1009.68 1007.24 1006.76 1006.98 1006.57 1005.15 1003.46 1003.03 1002.83 1002.66 1003.07 1001.77 1002.87 1003.46 1002.94 1002.12 1001.79 1001.59 1000.72 1000.15 999.83 999.97 1000.04 1000.61 1000.89 1002.44 1004.73 1006.23 1007.71 1008.37 1007.96 1008.50 1010.28 1011.22 1011.26 1010.83 1011.92 1012.70 1013.25 1013.18
1015.46 1015.19 1014.89 1013.06 1012.88 1009.43 1007.76 1006.84 1006.59 1006.73 1005.12 1002.69 1002.60 1002.84 1002.76 1002.68 1002.18 1002.72 1003.24 1003.03 1002.16 1001.58 1001.12 1000.37 1000.06 999.90 999.98 1000.30 1000.71 1000.86 1001.74 1003.30 1004.71 1007.42 1008.97 1006.35 1006.32 1008.86 1010.07 1009.12 1009.94 1010.51 1010.88 1011.58 1012.09
1015.06 1014.77 1014.89 1012.76 1009.53 1007.55 1007.30 1006.68 1006.20 1005.32 1004.00 1002.88 1002.62 1002.50 1002.61 1002.17 1002.30 1002.75 1003.00 1002.71 1001.85 1001.35 1000.86 1000.49 999.89 1000.20 1000.50 1000.39 1000.33 1000.98 1001.44 1002.11 1003.12 1005.00 1003.94 1002.72 1004.38 1005.84 1006.82 1006.66 1007.33 1007.99 1008.60 1009.52 1010.92
1014.29 1014.10 1012.18 1011.06 1008.91 1008.33 1007.64 1006.89 1007.53 1003.62 1003.06 1002.19 1002.12 1002.75 1003.24 1002.38 1002.28 1002.69 1002.72 1002.25 1001.41 1000.93 1000.46 1000.35 1000.37 1000.48 1000.35 1000.25 1000.01 1000.91 1001.30 1001.07 1001.76 1002.54 1002.65 1002.26 1003.29 1003.28 1003.98 1004.17 1005.08 1006.14 1007.13 1008.14 1009.46
1013.34 1011.44 1010.30 1008.88 1009.46 1008.66 1007.38 1006.64 1005.68 1003.43 1002.26 1002.20 1003.24 1005.05 1004.70 1003.89 1002.68 1002.58 1002.25 1001.62 1001.01 1000.48 1000.22 1000.09 999.71 999.99 1000.19 1000.55 1000.27 1000.06 1000.74 1000.81 1000.45 1003.58 1003.19 1002.76 1003.78 1003.86 1005.52 1004.91 1005.33 1005.70 1006.22 1007.01 1007.94
1012.67 1009.43 1007.04 1006.73 1007.58 1007.62 1006.49 1004.86 1004.05 1003.02 1002.60 1002.84 1004.38 1004.04 1003.65 1003.64 1004.00 1002.52 1001.84 1001.36 1000.83 1000.98 1000.93 1000.68 999.99 999.49 999.99 1000.30 1000.50 1000.10 1000.02 1000.22 1000.42 1001.52 1001.91 1001.83 1003.20 1004.18 1005.93 1006.62 1005.55 1005.60 1006.09 1006.60 1007.36
1012.16 1008.30 1006.02 1006.46 1006.89 1006.54 1004.76 1003.53 1003.21 1003.13 1003.08 1003.39 1003.67 1004.26 1004.38 1003.80 1002.70 1002.76 1002.55 1001.77 1001.30 1001.40 1001.86 1001.52 1000.47 1000.08 999.94 1000.10 1000.13 1000.32 1000.19 1000.03 999.82 1000.14 1000.86 1002.71 1004.33 1004.87 1006.51 1007.44 1008.14 1006.60 1005.14 1005.69 1006.83
1010.50 1007.14 1005.66 1006.09 1006.18 1005.02 1004.37 1003.19 1003.65 1002.87 1002.92 1002.94 1002.98 1004.22 1004.49 1004.44 1004.03 1003.99 1003.34 1002.42 1002.14 1001.98 1002.16 1001.90 1001.18 1001.05 1000.56 1000.02 1000.38 999.91 999.92 1000.09 999.87 1000.19 1000.47 1001.22 1002.68 1005.58 1006.08 1006.22 1008.10 1006.98 1004.40 1005.13 1006.26
1010.22 1006.05 1005.43 1005.75 1004.61 1003.37 1003.59 1003.35 1003.55 1003.29 1003.25 1003.17 1003.17 1003.82 1004.20 1004.19 1005.06 1005.28 1005.54 1004.18 1003.56 1002.94 1003.44 1003.06 1001.86 1001.37 1001.52 1000.99 1000.46 1000.35 999.92 999.74 1000.02 999.99 1000.21 1001.15 1004.08 1005.61 1006.18 1006.51 1005.04 1004.59 1004.10 1005.00 1005.96
1010.62 1006.10 1005.52 1005.23 1004.13 1003.20 1003.30 1003.34 1003.76 1004.38 1004.07 1004.12 1004.10 1003.90 1003.83 1003.74 1004.61 1005.25 1005.25 1004.40 1004.21 1004.00 1004.27 1004.09 1003.20 1003.74 1004.79 1003.64 1002.72 1001.54 1000.88 1000.14 999.77 1000.04 1000.29 1001.04 1002.53 1004.51 1006.64 1006.26 1005.95 1004.12 1004.39 1004.94 1006.25
1009.69 1005.43 1004.44 1003.63 1003.10 1003.22 1003.31 1003.54 1003.85 1004.31 1004.58 1004.52 1004.64 1004.25 1004.50 1004.55 1004.54 1004.52 1004.96 1004.56 1004.47 1004.73 1004.47 1004.47 1004.10 1004.26 1004.42 1003.86 1003.86 1003.19 1001.62 1000.66 1000.24 1000.16 1000.76 1002.28 1003.75 1005.07 1007.52 1008.42 1009.43 1007.27 1005.58 1006.20 1006.69
1009.36 1006.59 1004.55 1004.66 1004.06 1003.52 1003.93 1003.78 1004.35 1004.35 1004.24 1004.51 1004.61 1004.68 1004.73 1005.86 1006.24 1005.40 1004.47 1005.20 1004.88 1004.58 1004.64 1004.69 1004.83 1005.00 1004.84 1004.74 1004.46 1003.52 1002.40 1001.49 1000.65 1001.02 1001.47 1002.27 1004.18 1006.07 1007.98 1007.91 1008.83 1007.35 1007.27 1008.18 1008.45
1008.71 1007.53 1005.99 1005.29 1004.29 1003.94 1004.45 1004.07 1004.73 1005.18 1005.55 1005.42 1005.44 1005.19 1004.96 1005.69 1006.22 1005.95 1005.25 1004.86 1004.92 1005.18 1004.89 1004.94 1005.06 1005.11 1004.75 1004.54 1004.40 1004.08 1003.56 1002.60 1002.19 1001.86 1002.46 1004.31 1005.71 1006.96 1008.83 1009.14 1009.29 1010.28 1009.76 1009.23 1009.71
Thickness
5740 5740 5740 5740 5739 5739 5738 5738 5738 5737 5738 5739 5740 5743 5748 5752 5759 5767 5779 5803 5810 5808 5809 5817 5816 5820 5824 5809 5815 5806 5748 5773 5800 5792 5801 5825 5802 5804 5820 5815 5815 5812 5801 5798 5803
5738 5739 5738 5738 5738 5738 5738 5737 5737 5736 5736 5737 5738 5741 5744 5749 5762 5775 5803 5805 5805 5805 5805 5808 5809 5817 5807 5811 5817 5795 5752 5746 5771 5802 5803 5812 5811 5810 5810 5810 5802 5801 5805 5805 5803
5736 5736 5737 5736 5736 5735 5735 5735 5735 5734 5734 5735 5737 5739 5741 5745 5762 5801 5815 5806 5805 5803 5809 5820 5825 5821 5805 5817 5819 5812 5756 5755 5766 5792 5819 5805 5805 5821 5804 5797 5802 5790 5791 5800 5797
5733 5734 5734 5734 5734 5733 5732 5731 5731 5731 5732 5732 5733 5735 5738 5745 5760 5799 5801 5802 5802 5803 5802 5812 5817 5811 5811 5812 5826 5802 5809 5790 5803 5812 5811 5794 5805 5810 5812 5812 5815 5803 5800 5803 5795
5731 5731 5731 5731 5730 5729 5728 5728 5727 5727 5727 5728 5729 5731 5739 5750 5774 5797 5797 5796 5800 5798 5797 5805 5806 5812 5804 5820 5822 5808 5804 5807 5812 5803 5799 5806 5793 5798 5803 5820 5816 5805 5802 5799 5800
5728 5728 5727 5726 5725 5725 5724 5723 5722 5721 5721 5722 5723 5724 5734 5741 5803 5796 5797 5795 5799 5797 5797 5809 5810 5821 5817 5813 5801 5823 5817 5807 5806 5797 5801 5786 5779 5795 5802 5817 5807 5801 5799 5801 5803
5725 5724 5724 5722 5720 5718 5717 5716 5715 5715 5715 5714 5715 5720 5736 5754 5794 5798 5795 5792 5802 5798 5797 5811 5821 5817 5824 5809 5825 5823 5806 5803 5801 5795 5779 5785 5766 5769 5787 5809 5799 5798 5801 5803 5804
5721 5719 5719 5717 5715 5713 5710 5709 5708 5707 5708 5708 5707 5715 5734 5788 5785 5790 5792 5793 5800 5805 5806 5816 5821 5814 5812 5823 5814 5810 5804 5778 5794 5795 5786 5789 5743 5773 5785 5791 5794 5799 5801 5801 5802
5716 5715 5713 5711 5709 5706 5704 5702 5701 5700 5700 5700 5704 5714 5733 5772 5765 5783 5788 5783 5791 5798 5805 5815 5811 5798 5809 5796 5794 5805 5780 5789 5778 5801 5786 5781 5747 5763 5777 5778 5791 5798 5799 5799 5799
5711 5709 5708 5705 5702 5699 5697 5695 5696 5693 5695 5701 5709 5710 5741 5746 5767 5779 5786 5787 5779 5783 5784 5784 5786 5780 5794 5797 5778 5786 5798 5786 5784 5790 5786 5774 5765 5765 5768 5769 5775 5795 5796 5795 5795
5706 5704 5702 5698 5695 5692 5691 5696 5693 5695 5704 5716 5725 5732 5750 5762 5770 5761 5775 5772 5772 5769 5756 5775 5762 5765 5792 5812 5819 5811 5803 5786 5776 5772 5777 5771 5761 5764 5761 5765 5772 5786 5786 5786 5793
5701 5699 5695 5691 5688 5684 5681 5698 5720 5724 5707 5727 5733 5737 5753 5756 5736 5752 5768 5751 5754 5748 5765 5767 5758 5793 5811 5820 5810 5805 5803 5793 5752 5745 5777 5769 5758 5770 5770 5773 5772 5767 5772 5768 5782
5697 5693 5689 5686 5682 5682 5698 5711 5730 5731 5707 5726 5733 5729 5736 5744 5736 5742 5756 5757 5750 5750 5761 5765 5782 5802 5803 5802 5790 5803 5804 5780 5746 5746 5754 5772 5744 5758 5767 5767 5762 5761 5758 5756 5765
5692 5688 5684 5682 5680 5709 5710 5728 5730 5731 5688 5710 5720 5733 5737 5742 5733 5760 5762 5759 5756 5751 5766 5773 5803 5796 5797 5792 5801 5790 5819 5771 5744 5723 5731 5785 5729 5740 5758 5759 5762 5754 5750 5752 5753
5688 5684 5681 5676 5689 5705 5722 5730 5727 5718 5651 5717 5721 5752 5745 5729 5749 5744 5763 5757 5748 5759 5768 5769 5785 5793 5790 5799 5808 5799 5805 5779 5770 5754 5736 5764 5745 5743 5748 5747 5768 5766 5764 5767 5774
5685 5682 5680 5691 5686 5709 5722 5729 5721 5665 5644 5716 5730 5721 5723 5734 5743 5747 5746 5763 5771 5763 5775 5782 5809 5802 5798 5803 5807 5816 5801 5789 5778 5737 5708 5763 5777 5733 5740 5760 5766 5777 5779 5777 5778
5685 5683 5678 5689 5705 5724 5726 5716 5680 5660 5716 5714 5717 5729 5726 5731 5735 5735 5730 5734 5738 5732 5744 5770 5785 5794 5800 5788 5806 5796 5785 5760 5761 5751 5765 5825 5792 5769 5782 5799 5795 5794 5797 5794 5786
5689 5687 5698 5701 5716 5720 5715 5695 5629 5714 5717 5745 5742 5731 5708 5735 5739 5733 5730 5730 5758 5763 5758 5747 5740 5773 5794 5787 5788 5781 5784 5774 5746 5764 5775 5820 5776 5793 5820 5831 5825 5818 5814 5809 5797
5695 5707 5708 5718 5712 5717 5704 5668 5680 5714 5743 5736 5723 5681 5695 5712 5735 5734 5736 5742 5760 5776 5758 5757 5762 5792 5794 5797 5801 5791 5772 5808 5790 5749 5762 5787 5792 5804 5799 5814 5814 5813 5814 5810 5810
5700 5717 5728 5736 5728 5718 5702 5695 5712 5738 5742 5733 5679 5710 5707 5716 5709 5732 5743 5759 5762 5773 5777 5765 5749 5790 5790 5798 5797 5794 5813 5781 5791 5747 5745 5784 5782 5783 5772 5753 5802 5804 5806 5812 5812
5701 5713 5736 5740 5733 5713 5704 5720 5729 5740 5738 5721 5714 5704 5708 5714 5740 5730 5727 5755 5766 5765 5767 5760 5765 5769 5788 5772 5770 5779 5778 5789 5801 5799 5769 5741 5758 5794 5770 5757 5756 5781 5814 5816 5811
5712 5704 5742 5742 5706 5718 5708 5733 5724 5737 5744 5738 5738 5717 5708 5714 5718 5718 5715 5740 5763 5764 5749 5763 5760 5743 5761 5794 5796 5797 5789 5791 5772 5770 5790 5791 5789 5783 5778 5780 5748 5753 5819 5820 5813
5704 5726 5744 5737 5705 5724 5731 5731 5730 5729 5729 5732 5730 5728 5729 5719 5699 5700 5691 5735 5749 5752 5736 5749 5753 5742 5742 5767 5788 5777 5793 5801 5800 5805 5786 5780 5757 5781 5776 5776 5792 5809 5822 5819 5814
5700 5709 5724 5731 5738 5733 5725 5724 5713 5723 5721 5725 5722 5731 5729 5729 5720 5703 5705 5730 5742 5739 5734 5746 5747 5716 5678 5718 5746 5752 5772 5790 5798 5779 5787 5797 5790 5792 5766 5785 5798 5819 5818 5816 5808
5710 5725 5734 5722 5735 5734 5734 5726 5712 5704 5718 5721 5711 5719 5713 5705 5712 5713 5716 5724 5733 5724 5738 5737 5720 5729 5728 5739 5735 5737 5760 5778 5778 5789 5775 5764 5766 5780 5762 5755 5742 5782 5800 5796 5797
5700 5708 5733 5721 5729 5730 5716 5719 5708 5713 5717 5708 5706 5715 5719 5685 5688 5698 5721 5709 5708 5728 5727 5736 5713 5719 5716 5731 5734 5736 5756 5767 5782 5783 5782 5783 5757 5768 5757 5758 5751 5722 5763 5765 5774
5716 5719 5718 5707 5722 5721 5710 5718 5709 5711 5710 5713 5709 5709 5710 5706 5709 5716 5725 5728 5724 5714 5716 5718 5715 5711 5705 5733 5733 5722 5742 5754 5761 5776 5769 5733 5746 5759 5742 5735 5734 5723 5743 5761 5762